Time,TemperatureF,DewpointF,PressureIn,WindDirection,WindDirectionDegrees,WindSpeedMPH,WindSpeedGustMPH,Humidity,HourlyPrecipIn,Conditions,Clouds,dailyrainin,SolarRadiationWatts/m^2,SoftwareType,DateUTC
2013-04-28 00:12:00,59.0,45.0,-100.00,South,178,8.0,15.0,59,0.00,,,0.00,1.000000,,2013-04-28 05:12:00,
2013-04-28 00:22:00,59.0,45.0,-100.00,South,178,8.0,15.0,59,0.00,,,0.00,1.000000,,2013-04-28 05:22:00,
2013-04-28 00:32:00,59.0,45.0,-100.00,South,178,8.0,15.0,59,0.00,,,0.00,1.000000,,2013-04-28 05:32:00,
2013-04-28 00:42:00,59.0,45.0,-100.00,South,178,8.0,15.0,59,0.00,,,0.00,1.000000,,2013-04-28 05:42:00,
2013-04-28 01:12:00,58.0,46.0,-100.00,South,188,10.0,15.0,64,0.00,,,0.00,1.000000,,2013-04-28 06:12:00,
2013-04-28 01:21:00,58.0,46.0,-100.00,South,188,10.0,15.0,64,0.00,,,0.00,1.000000,,2013-04-28 06:21:00,
2013-04-28 01:32:00,58.0,46.0,-100.00,South,188,10.0,15.0,64,0.00,,,0.00,1.000000,,2013-04-28 06:32:00,
2013-04-28 01:42:00,58.0,46.0,-100.00,South,188,10.0,15.0,64,0.00,,,0.00,1.000000,,2013-04-28 06:42:00,
2013-04-28 02:11:00,56.0,46.0,-100.00,SSW,192,9.0,14.0,69,0.00,,,0.00,1.000000,,2013-04-28 07:11:00,
2013-04-28 02:21:00,56.0,46.0,-100.00,SSW,192,9.0,14.0,69,0.00,,,0.00,1.000000,,2013-04-28 07:21:00,
2013-04-28 02:32:00,56.0,46.0,-100.00,SSW,192,9.0,14.0,69,0.00,,,0.00,1.000000,,2013-04-28 07:32:00,
2013-04-28 02:42:00,56.0,46.0,-100.00,SSW,192,9.0,14.0,69,0.00,,,0.00,1.000000,,2013-04-28 07:42:00,
2013-04-28 03:11:00,54.0,46.0,-100.00,SSW,196,9.0,15.0,73,0.00,,,0.00,1.000000,,2013-04-28 08:11:00,
2013-04-28 03:21:00,54.0,46.0,-100.00,SSW,196,9.0,15.0,73,0.00,,,0.00,1.000000,,2013-04-28 08:21:00,
2013-04-28 03:32:00,54.0,46.0,-100.00,SSW,196,9.0,15.0,73,0.00,,,0.00,1.000000,,2013-04-28 08:32:00,
2013-04-28 03:42:00,54.0,46.0,-100.00,SSW,196,9.0,15.0,73,0.00,,,0.00,1.000000,,2013-04-28 08:42:00,
2013-04-28 04:11:00,53.0,47.0,-100.00,SSW,197,10.0,16.0,80,0.00,,,0.00,1.000000,,2013-04-28 09:11:00,
2013-04-28 04:21:00,53.0,47.0,-100.00,SSW,197,10.0,16.0,80,0.00,,,0.00,1.000000,,2013-04-28 09:21:00,
2013-04-28 04:33:00,53.0,47.0,-100.00,SSW,197,10.0,16.0,80,0.00,,,0.00,1.000000,,2013-04-28 09:33:00,
2013-04-28 04:42:00,53.0,47.0,-100.00,SSW,197,10.0,16.0,80,0.00,,,0.00,1.000000,,2013-04-28 09:42:00,
2013-04-28 05:12:00,52.0,47.0,-100.00,SSW,194,9.0,15.0,83,0.00,,,0.00,1.000000,,2013-04-28 10:12:00,
2013-04-28 05:22:00,52.0,47.0,-100.00,SSW,194,9.0,15.0,83,0.00,,,0.00,1.000000,,2013-04-28 10:22:00,
2013-04-28 05:32:00,52.0,47.0,-100.00,SSW,194,9.0,15.0,83,0.00,,,0.00,1.000000,,2013-04-28 10:32:00,
2013-04-28 05:42:00,52.0,47.0,-100.00,SSW,194,9.0,15.0,83,0.00,,,0.00,1.000000,,2013-04-28 10:42:00,
2013-04-28 06:11:00,51.0,47.0,-100.00,SSW,192,8.0,13.0,86,0.00,,,0.00,1.000000,,2013-04-28 11:11:00,
2013-04-28 06:22:00,51.0,47.0,-100.00,SSW,192,8.0,13.0,86,0.00,,,0.00,1.000000,,2013-04-28 11:22:00,
2013-04-28 06:32:00,51.0,47.0,-100.00,SSW,192,8.0,13.0,86,0.00,,,0.00,1.000000,,2013-04-28 11:32:00,
2013-04-28 06:42:00,51.0,47.0,-100.00,SSW,192,8.0,13.0,86,0.00,,,0.00,1.000000,,2013-04-28 11:42:00,
2013-04-28 07:12:00,50.0,47.0,-100.00,South,183,8.0,13.0,89,0.00,,,0.00,17.000000,,2013-04-28 12:12:00,
2013-04-28 07:21:00,50.0,47.0,-100.00,South,183,8.0,13.0,89,0.00,,,0.00,17.000000,,2013-04-28 12:21:00,
2013-04-28 07:32:00,50.0,47.0,-100.00,South,183,8.0,13.0,89,0.00,,,0.00,17.000000,,2013-04-28 12:32:00,
2013-04-28 07:42:00,50.0,47.0,-100.00,South,183,8.0,13.0,89,0.00,,,0.00,17.000000,,2013-04-28 12:42:00,
2013-04-28 08:11:00,54.0,49.0,-100.00,South,189,9.0,14.0,84,0.00,,,0.00,148.000000,,2013-04-28 13:11:00,
2013-04-28 08:21:00,54.0,49.0,-100.00,South,189,9.0,14.0,84,0.00,,,0.00,148.000000,,2013-04-28 13:21:00,
2013-04-28 08:32:00,54.0,49.0,-100.00,South,189,9.0,14.0,84,0.00,,,0.00,148.000000,,2013-04-28 13:32:00,
2013-04-28 08:42:00,54.0,49.0,-100.00,South,189,9.0,14.0,84,0.00,,,0.00,148.000000,,2013-04-28 13:42:00,
2013-04-28 09:11:00,58.0,49.0,-100.00,SSW,194,10.0,16.0,71,0.00,,,0.00,301.000000,,2013-04-28 14:11:00,
2013-04-28 09:22:00,58.0,49.0,-100.00,SSW,194,10.0,16.0,71,0.00,,,0.00,301.000000,,2013-04-28 14:22:00,
2013-04-28 09:32:00,58.0,49.0,-100.00,SSW,194,10.0,16.0,71,0.00,,,0.00,301.000000,,2013-04-28 14:32:00,
2013-04-28 09:42:00,58.0,49.0,-100.00,SSW,194,10.0,16.0,71,0.00,,,0.00,301.000000,,2013-04-28 14:42:00,
2013-04-28 10:12:00,63.0,50.0,-100.00,South,177,10.0,18.0,63,0.00,,,0.00,413.000000,,2013-04-28 15:12:00,
2013-04-28 10:21:00,63.0,50.0,-100.00,South,177,10.0,18.0,63,0.00,,,0.00,413.000000,,2013-04-28 15:21:00,
2013-04-28 10:32:00,63.0,50.0,-100.00,South,177,10.0,18.0,63,0.00,,,0.00,413.000000,,2013-04-28 15:32:00,
2013-04-28 10:42:00,63.0,50.0,-100.00,South,177,10.0,18.0,63,0.00,,,0.00,413.000000,,2013-04-28 15:42:00,
2013-04-28 11:13:00,68.0,48.0,-100.00,South,181,15.0,22.0,49,0.00,,,0.00,557.000000,,2013-04-28 16:13:00,
2013-04-28 11:23:00,68.0,48.0,-100.00,South,181,15.0,22.0,49,0.00,,,0.00,557.000000,,2013-04-28 16:23:00,
2013-04-28 11:33:00,68.0,48.0,-100.00,South,181,15.0,22.0,49,0.00,,,0.00,557.000000,,2013-04-28 16:33:00,
2013-04-28 11:42:00,68.0,48.0,-100.00,South,181,15.0,22.0,49,0.00,,,0.00,557.000000,,2013-04-28 16:42:00,
2013-04-28 12:12:00,72.0,45.0,-100.00,South,189,17.0,26.0,38,0.00,,,0.00,780.000000,,2013-04-28 17:12:00,
2013-04-28 12:22:00,72.0,45.0,-100.00,South,189,17.0,26.0,38,0.00,,,0.00,780.000000,,2013-04-28 17:22:00,
2013-04-28 12:32:00,72.0,45.0,-100.00,South,189,17.0,26.0,38,0.00,,,0.00,780.000000,,2013-04-28 17:32:00,
2013-04-28 12:42:00,72.0,45.0,-100.00,South,189,17.0,26.0,38,0.00,,,0.00,780.000000,,2013-04-28 17:42:00,
2013-04-28 13:12:00,73.0,44.0,-100.00,South,186,15.0,25.0,36,0.00,,,0.00,798.000000,,2013-04-28 18:12:00,
2013-04-28 13:22:00,73.0,44.0,-100.00,South,186,15.0,25.0,36,0.00,,,0.00,798.000000,,2013-04-28 18:22:00,
2013-04-28 13:32:00,73.0,44.0,-100.00,South,186,15.0,25.0,36,0.00,,,0.00,798.000000,,2013-04-28 18:32:00,
2013-04-28 13:42:00,73.0,44.0,-100.00,South,186,15.0,25.0,36,0.00,,,0.00,798.000000,,2013-04-28 18:42:00,
2013-04-28 14:11:00,77.0,48.0,-100.00,South,190,14.0,22.0,36,0.00,,,0.00,727.000000,,2013-04-28 19:11:00,
2013-04-28 14:22:00,77.0,48.0,-100.00,South,190,14.0,22.0,36,0.00,,,0.00,727.000000,,2013-04-28 19:22:00,
2013-04-28 14:32:00,77.0,48.0,-100.00,South,190,14.0,22.0,36,0.00,,,0.00,727.000000,,2013-04-28 19:32:00,
2013-04-28 14:42:00,77.0,48.0,-100.00,South,190,14.0,22.0,36,0.00,,,0.00,727.000000,,2013-04-28 19:42:00,
2013-04-28 15:12:00,80.0,47.0,-100.00,SSW,203,10.0,21.0,31,0.00,,,0.00,741.000000,,2013-04-28 20:12:00,
2013-04-28 15:22:00,80.0,47.0,-100.00,SSW,203,10.0,21.0,31,0.00,,,0.00,741.000000,,2013-04-28 20:22:00,
2013-04-28 15:32:00,80.0,47.0,-100.00,SSW,203,10.0,21.0,31,0.00,,,0.00,741.000000,,2013-04-28 20:32:00,
2013-04-28 15:42:00,80.0,47.0,-100.00,SSW,203,10.0,21.0,31,0.00,,,0.00,741.000000,,2013-04-28 20:42:00,
2013-04-28 16:11:00,81.0,45.0,-100.00,SSW,205,13.0,20.0,28,0.00,,,0.00,683.000000,,2013-04-28 21:11:00,
2013-04-28 16:22:00,81.0,45.0,-100.00,SSW,205,13.0,20.0,28,0.00,,,0.00,683.000000,,2013-04-28 21:22:00,
2013-04-28 16:33:00,81.0,45.0,-100.00,SSW,205,13.0,20.0,28,0.00,,,0.00,683.000000,,2013-04-28 21:33:00,
2013-04-28 16:42:00,81.0,45.0,-100.00,SSW,205,13.0,20.0,28,0.00,,,0.00,683.000000,,2013-04-28 21:42:00,
2013-04-28 17:12:00,83.0,47.0,-100.00,South,177,10.0,20.0,28,0.00,,,0.00,547.000000,,2013-04-28 22:12:00,
2013-04-28 17:23:00,83.0,47.0,-100.00,South,177,10.0,20.0,28,0.00,,,0.00,547.000000,,2013-04-28 22:23:00,
2013-04-28 17:33:00,83.0,47.0,-100.00,South,177,10.0,20.0,28,0.00,,,0.00,547.000000,,2013-04-28 22:33:00,
2013-04-28 17:42:00,83.0,47.0,-100.00,South,177,10.0,20.0,28,0.00,,,0.00,547.000000,,2013-04-28 22:42:00,
2013-04-28 18:12:00,76.0,41.0,-100.00,SSW,207,11.0,16.0,29,0.00,,,0.00,221.000000,,2013-04-28 23:12:00,
2013-04-28 18:22:00,76.0,41.0,-100.00,SSW,207,11.0,16.0,29,0.00,,,0.00,221.000000,,2013-04-28 23:22:00,
2013-04-28 18:32:00,76.0,41.0,-100.00,SSW,207,11.0,16.0,29,0.00,,,0.00,221.000000,,2013-04-28 23:32:00,
2013-04-28 18:42:00,76.0,41.0,-100.00,SSW,207,11.0,16.0,29,0.00,,,0.00,221.000000,,2013-04-28 23:42:00,
2013-04-28 19:11:00,70.0,50.0,-100.00,South,177,5.0,24.0,50,0.00,,,0.00,115.000000,,2013-04-29 00:11:00,
2013-04-28 19:22:00,70.0,50.0,-100.00,South,177,5.0,24.0,50,0.00,,,0.00,115.000000,,2013-04-29 00:22:00,
2013-04-28 19:32:00,70.0,50.0,-100.00,South,177,5.0,24.0,50,0.00,,,0.00,115.000000,,2013-04-29 00:32:00,
2013-04-28 19:42:00,70.0,50.0,-100.00,South,177,5.0,24.0,50,0.00,,,0.00,115.000000,,2013-04-29 00:42:00,
2013-04-28 20:12:00,69.0,51.0,-100.00,NW,311,2.0,9.0,52,0.00,,,0.00,87.000000,,2013-04-29 01:12:00,
2013-04-28 20:21:00,69.0,51.0,-100.00,NW,311,2.0,9.0,52,0.00,,,0.00,87.000000,,2013-04-29 01:21:00,
2013-04-28 20:32:00,69.0,51.0,-100.00,NW,311,2.0,9.0,52,0.00,,,0.00,87.000000,,2013-04-29 01:32:00,
2013-04-28 20:42:00,69.0,51.0,-100.00,NW,311,2.0,9.0,52,0.00,,,0.00,87.000000,,2013-04-29 01:42:00,
2013-04-28 21:11:00,68.0,43.0,-100.00,North,353,9.0,19.0,40,0.00,,,0.00,4.000000,,2013-04-29 02:11:00,
2013-04-28 21:22:00,68.0,43.0,-100.00,North,353,9.0,19.0,40,0.00,,,0.00,4.000000,,2013-04-29 02:22:00,
2013-04-28 21:32:00,68.0,43.0,-100.00,North,353,9.0,19.0,40,0.00,,,0.00,4.000000,,2013-04-29 02:32:00,
2013-04-28 21:42:00,68.0,43.0,-100.00,North,353,9.0,19.0,40,0.00,,,0.00,4.000000,,2013-04-29 02:42:00,
2013-04-28 22:12:00,61.0,47.0,-100.00,NNE,25,9.0,21.0,61,0.01,,,0.01,1.000000,,2013-04-29 03:12:00,
2013-04-28 22:21:00,61.0,47.0,-100.00,NNE,25,9.0,21.0,61,0.01,,,0.01,1.000000,,2013-04-29 03:21:00,
2013-04-28 22:33:00,61.0,47.0,-100.00,NNE,25,9.0,21.0,61,0.01,,,0.01,1.000000,,2013-04-29 03:33:00,
2013-04-28 22:42:00,61.0,47.0,-100.00,NNE,25,9.0,21.0,61,0.01,,,0.01,1.000000,,2013-04-29 03:42:00,
2013-04-28 23:13:00,59.0,50.0,-100.00,SSE,149,4.0,11.0,72,0.00,,,0.01,1.000000,,2013-04-29 04:13:00,
2013-04-28 23:23:00,59.0,50.0,-100.00,SSE,149,4.0,11.0,72,0.00,,,0.01,1.000000,,2013-04-29 04:23:00,
2013-04-28 23:33:00,59.0,50.0,-100.00,SSE,149,4.0,11.0,72,0.00,,,0.01,1.000000,,2013-04-29 04:33:00,
2013-04-28 23:43:00,59.0,50.0,-100.00,SSE,149,4.0,11.0,72,0.00,,,0.01,1.000000,,2013-04-29 04:43:00,